Time,TemperatureF,DewpointF,PressureIn,WindDirection,WindDirectionDegrees,WindSpeedMPH,WindSpeedGustMPH,Humidity,HourlyPrecipIn,Conditions,Clouds,dailyrainin,SolarRadiationWatts/m^2,SoftwareType,DateUTC
2013-08-30 00:01:00,53.7,52.6,30.01,North,5,0.0,0.0,96,0.00,,,0.00,0,Wunderground v.1.15,2013-08-30 04:01:00,
2013-08-30 00:02:00,53.7,52.6,30.01,North,5,0.0,0.0,96,0.00,,,0.00,0,Wunderground v.1.15,2013-08-30 04:02:00,
2013-08-30 00:03:00,53.7,52.6,30.01,North,5,0.0,0.0,96,0.00,,,0.00,0,Wunderground v.1.15,2013-08-30 04:03:00,
2013-08-30 00:08:00,53.7,52.6,30.01,North,5,0.0,0.0,96,0.00,,,0.00,0,Wunderground v.1.15,2013-08-30 04:08:00,
2013-08-30 00:09:00,53.7,52.6,30.01,North,5,0.0,0.0,96,0.00,,,0.00,0,Wunderground v.1.15,2013-08-30 04:09:00,
2013-08-30 00:15:00,53.7,52.9,30.01,North,5,0.0,0.0,97,0.00,,,0.00,0,Wunderground v.1.15,2013-08-30 04:15:00,
2013-08-30 00:20:00,53.7,52.9,30.01,North,5,0.0,0.0,97,0.00,,,0.00,0,Wunderground v.1.15,2013-08-30 04:20:00,
2013-08-30 00:25:00,53.7,52.9,30.00,North,5,0.0,0.0,97,0.00,,,0.00,0,Wunderground v.1.15,2013-08-30 04:25:00,
2013-08-30 00:30:00,53.6,52.8,30.00,North,5,0.0,0.0,97,0.00,,,0.00,0,Wunderground v.1.15,2013-08-30 04:30:00,
2013-08-30 00:36:00,53.6,52.5,30.00,North,5,0.0,0.0,96,0.00,,,0.00,0,Wunderground v.1.15,2013-08-30 04:36:00,
2013-08-30 00:41:00,53.5,52.4,30.00,North,5,0.0,0.0,96,0.00,,,0.00,0,Wunderground v.1.15,2013-08-30 04:41:00,
2013-08-30 00:46:00,53.4,52.3,30.00,North,5,0.0,0.0,96,0.00,,,0.00,0,Wunderground v.1.15,2013-08-30 04:46:00,
2013-08-30 00:51:00,53.3,52.2,30.00,North,5,0.0,0.0,96,0.00,,,0.00,0,Wunderground v.1.15,2013-08-30 04:51:00,
2013-08-30 00:57:00,53.0,51.9,30.00,North,5,0.0,0.0,96,0.00,,,0.00,0,Wunderground v.1.15,2013-08-30 04:57:00,
2013-08-30 01:02:00,52.8,51.7,30.00,North,5,0.0,0.0,96,0.00,,,0.00,0,Wunderground v.1.15,2013-08-30 05:02:00,
2013-08-30 01:07:00,52.7,51.6,30.00,North,5,0.0,0.0,96,0.00,,,0.00,0,Wunderground v.1.15,2013-08-30 05:07:00,
2013-08-30 01:12:00,52.6,51.8,30.00,North,5,0.0,0.0,97,0.00,,,0.00,0,Wunderground v.1.15,2013-08-30 05:12:00,
2013-08-30 01:17:00,52.6,51.8,30.00,North,5,0.0,0.0,97,0.00,,,0.00,0,Wunderground v.1.15,2013-08-30 05:17:00,
2013-08-30 01:22:00,52.5,51.7,30.00,North,5,0.0,0.0,97,0.00,,,0.00,0,Wunderground v.1.15,2013-08-30 05:22:00,
2013-08-30 01:27:00,52.6,51.8,30.00,North,5,0.0,0.0,97,0.00,,,0.00,0,Wunderground v.1.15,2013-08-30 05:27:00,
2013-08-30 01:33:00,52.6,51.8,30.00,North,5,0.0,0.0,97,0.00,,,0.00,0,Wunderground v.1.15,2013-08-30 05:33:00,
2013-08-30 01:38:00,52.7,51.9,30.00,North,5,0.0,0.0,97,0.00,,,0.00,0,Wunderground v.1.15,2013-08-30 05:38:00,
2013-08-30 01:43:00,52.7,51.9,30.00,North,5,0.0,0.0,97,0.00,,,0.00,0,Wunderground v.1.15,2013-08-30 05:43:00,
2013-08-30 01:49:00,52.6,51.8,30.00,North,5,0.0,0.0,97,0.00,,,0.00,0,Wunderground v.1.15,2013-08-30 05:49:00,
2013-08-30 01:54:00,52.5,51.7,30.00,North,5,0.0,0.0,97,0.00,,,0.00,0,Wunderground v.1.15,2013-08-30 05:54:00,
2013-08-30 02:00:00,52.3,51.5,29.99,North,5,0.0,1.0,97,0.00,,,0.00,0,Wunderground v.1.15,2013-08-30 06:00:00,
2013-08-30 02:05:00,52.5,51.7,29.99,North,5,0.0,1.0,97,0.00,,,0.00,0,Wunderground v.1.15,2013-08-30 06:05:00,
2013-08-30 02:10:00,52.4,51.6,29.99,North,5,0.0,0.0,97,0.00,,,0.00,0,Wunderground v.1.15,2013-08-30 06:10:00,
2013-08-30 02:15:00,52.3,51.5,29.99,North,5,0.0,0.0,97,0.00,,,0.00,0,Wunderground v.1.15,2013-08-30 06:15:00,
2013-08-30 02:20:00,52.1,51.3,29.99,North,5,0.0,0.0,97,0.00,,,0.00,0,Wunderground v.1.15,2013-08-30 06:20:00,
2013-08-30 02:25:00,52.0,51.2,29.99,North,5,0.0,0.0,97,0.00,,,0.00,0,Wunderground v.1.15,2013-08-30 06:25:00,
2013-08-30 02:31:00,51.9,51.1,29.98,North,5,0.0,0.0,97,0.00,,,0.00,0,Wunderground v.1.15,2013-08-30 06:31:00,
2013-08-30 02:36:00,51.9,51.1,29.98,North,5,0.0,0.0,97,0.00,,,0.00,0,Wunderground v.1.15,2013-08-30 06:36:00,
2013-08-30 02:42:00,51.9,51.1,29.98,North,5,0.0,0.0,97,0.00,,,0.00,0,Wunderground v.1.15,2013-08-30 06:42:00,
2013-08-30 02:47:00,52.0,51.2,29.98,North,5,0.0,0.0,97,0.00,,,0.00,0,Wunderground v.1.15,2013-08-30 06:47:00,
2013-08-30 02:53:00,51.9,51.1,29.98,North,5,0.0,0.0,97,0.00,,,0.00,0,Wunderground v.1.15,2013-08-30 06:53:00,
2013-08-30 02:58:00,51.7,50.9,29.98,North,5,0.0,0.0,97,0.00,,,0.00,0,Wunderground v.1.15,2013-08-30 06:58:00,
2013-08-30 03:03:00,51.6,50.8,29.98,North,5,0.0,0.0,97,0.00,,,0.00,0,Wunderground v.1.15,2013-08-30 07:03:00,
2013-08-30 03:08:00,51.4,50.6,29.98,North,5,0.0,0.0,97,0.00,,,0.00,0,Wunderground v.1.15,2013-08-30 07:08:00,
2013-08-30 03:13:00,51.4,50.6,29.97,North,5,0.0,0.0,97,0.00,,,0.00,0,Wunderground v.1.15,2013-08-30 07:13:00,
2013-08-30 03:18:00,51.4,50.6,29.97,North,5,0.0,0.0,97,0.00,,,0.00,0,Wunderground v.1.15,2013-08-30 07:18:00,
2013-08-30 03:23:00,51.4,50.6,29.97,North,5,0.0,0.0,97,0.00,,,0.00,0,Wunderground v.1.15,2013-08-30 07:23:00,
2013-08-30 03:29:00,51.3,50.5,29.96,North,5,0.0,1.0,97,0.00,,,0.00,0,Wunderground v.1.15,2013-08-30 07:29:00,
2013-08-30 03:34:00,51.1,50.3,29.96,WNW,291,1.0,2.0,97,0.00,,,0.00,0,Wunderground v.1.15,2013-08-30 07:34:00,
2013-08-30 03:39:00,50.9,50.1,29.96,WNW,291,1.0,2.0,97,0.00,,,0.00,0,Wunderground v.1.15,2013-08-30 07:39:00,
2013-08-30 03:44:00,50.8,50.0,29.96,WNW,291,0.0,1.0,97,0.00,,,0.00,0,Wunderground v.1.15,2013-08-30 07:44:00,
2013-08-30 03:50:00,50.7,49.9,29.96,WNW,291,0.0,0.0,97,0.00,,,0.00,0,Wunderground v.1.15,2013-08-30 07:50:00,
2013-08-30 03:56:00,50.7,49.9,29.96,WNW,291,0.0,0.0,97,0.00,,,0.00,0,Wunderground v.1.15,2013-08-30 07:56:00,
2013-08-30 04:01:00,50.9,50.4,29.96,WNW,293,0.0,1.0,98,0.00,,,0.00,0,Wunderground v.1.15,2013-08-30 08:01:00,
2013-08-30 04:06:00,51.2,50.7,29.96,WNW,293,0.0,1.0,98,0.00,,,0.00,0,Wunderground v.1.15,2013-08-30 08:06:00,
2013-08-30 04:11:00,51.4,50.9,29.96,WNW,293,0.0,0.0,98,0.00,,,0.00,0,Wunderground v.1.15,2013-08-30 08:11:00,
2013-08-30 04:16:00,51.5,51.0,29.96,WNW,293,0.0,0.0,98,0.00,,,0.00,0,Wunderground v.1.15,2013-08-30 08:16:00,
2013-08-30 04:21:00,51.7,51.2,29.95,WNW,293,0.0,0.0,98,0.00,,,0.00,0,Wunderground v.1.15,2013-08-30 08:21:00,
2013-08-30 04:27:00,51.9,51.4,29.95,WNW,293,0.0,0.0,98,0.00,,,0.00,0,Wunderground v.1.15,2013-08-30 08:27:00,
2013-08-30 04:33:00,52.1,51.6,29.95,WNW,293,0.0,0.0,98,0.00,,,0.00,0,Wunderground v.1.15,2013-08-30 08:33:00,
2013-08-30 04:38:00,52.3,51.8,29.95,North,5,0.0,1.0,98,0.00,,,0.00,0,Wunderground v.1.15,2013-08-30 08:38:00,
2013-08-30 04:43:00,52.5,52.0,29.94,North,360,0.0,1.0,98,0.00,,,0.00,0,Wunderground v.1.15,2013-08-30 08:43:00,
2013-08-30 04:48:00,52.5,52.0,29.95,North,360,0.0,1.0,98,0.00,,,0.00,0,Wunderground v.1.15,2013-08-30 08:48:00,
2013-08-30 04:53:00,52.6,52.1,29.95,North,360,0.0,0.0,98,0.00,,,0.00,0,Wunderground v.1.15,2013-08-30 08:53:00,
2013-08-30 04:58:00,52.6,52.1,29.94,North,360,0.0,0.0,98,0.00,,,0.00,0,Wunderground v.1.15,2013-08-30 08:58:00,
2013-08-30 05:03:00,52.6,52.1,29.95,North,360,0.0,0.0,98,0.00,,,0.00,0,Wunderground v.1.15,2013-08-30 09:03:00,
2013-08-30 05:08:00,52.6,52.1,29.94,North,360,0.0,0.0,98,0.00,,,0.00,0,Wunderground v.1.15,2013-08-30 09:08:00,
2013-08-30 05:14:00,52.7,52.2,29.94,North,360,0.0,0.0,98,0.00,,,0.00,0,Wunderground v.1.15,2013-08-30 09:14:00,
2013-08-30 05:19:00,52.8,52.3,29.94,North,360,0.0,0.0,98,0.00,,,0.00,0,Wunderground v.1.15,2013-08-30 09:19:00,
2013-08-30 05:24:00,52.8,52.3,29.94,North,360,0.0,1.0,98,0.00,,,0.00,0,Wunderground v.1.15,2013-08-30 09:24:00,
2013-08-30 05:30:00,52.9,52.4,29.94,North,360,0.0,0.0,98,0.00,,,0.00,0,Wunderground v.1.15,2013-08-30 09:30:00,
2013-08-30 05:35:00,53.0,52.5,29.95,North,360,0.0,0.0,98,0.00,,,0.00,0,Wunderground v.1.15,2013-08-30 09:35:00,
2013-08-30 05:41:00,53.0,52.5,29.94,North,360,0.0,0.0,98,0.00,,,0.00,0,Wunderground v.1.15,2013-08-30 09:41:00,
2013-08-30 05:46:00,53.0,52.5,29.94,North,360,0.0,0.0,98,0.00,,,0.00,0,Wunderground v.1.15,2013-08-30 09:46:00,
2013-08-30 05:51:00,53.0,52.5,29.95,North,360,0.0,0.0,98,0.00,,,0.00,0,Wunderground v.1.15,2013-08-30 09:51:00,
2013-08-30 05:57:00,52.9,52.4,29.95,North,360,0.0,0.0,98,0.00,,,0.00,0,Wunderground v.1.15,2013-08-30 09:57:00,
2013-08-30 06:03:00,52.8,52.3,29.95,North,360,0.0,0.0,98,0.00,,,0.00,5,Wunderground v.1.15,2013-08-30 10:03:00,
2013-08-30 06:09:00,52.8,52.3,29.95,North,360,0.0,0.0,98,0.00,,,0.00,9,Wunderground v.1.15,2013-08-30 10:09:00,
2013-08-30 06:14:00,52.8,52.3,29.94,North,360,0.0,0.0,98,0.00,,,0.00,12,Wunderground v.1.15,2013-08-30 10:14:00,
2013-08-30 06:19:00,52.8,52.3,29.94,North,360,0.0,0.0,98,0.00,,,0.00,12,Wunderground v.1.15,2013-08-30 10:19:00,
2013-08-30 06:25:00,52.8,52.3,29.94,North,360,0.0,0.0,98,0.00,,,0.00,16,Wunderground v.1.15,2013-08-30 10:25:00,
2013-08-30 06:30:00,52.9,52.4,29.94,North,360,0.0,0.0,98,0.00,,,0.00,18,Wunderground v.1.15,2013-08-30 10:30:00,
2013-08-30 06:35:00,52.9,52.4,29.94,North,360,0.0,0.0,98,0.00,,,0.00,19,Wunderground v.1.15,2013-08-30 10:35:00,
2013-08-30 06:41:00,52.9,52.4,29.95,North,360,0.0,0.0,98,0.00,,,0.00,23,Wunderground v.1.15,2013-08-30 10:41:00,
2013-08-30 06:46:00,52.9,52.4,29.95,North,360,0.0,0.0,98,0.00,,,0.00,25,Wunderground v.1.15,2013-08-30 10:46:00,
2013-08-30 06:52:00,53.0,52.5,29.94,North,360,0.0,0.0,98,0.00,,,0.00,28,Wunderground v.1.15,2013-08-30 10:52:00,
2013-08-30 06:58:00,53.0,52.5,29.94,North,360,0.0,0.0,98,0.00,,,0.00,37,Wunderground v.1.15,2013-08-30 10:58:00,
2013-08-30 07:04:00,53.1,52.6,29.94,North,360,0.0,0.0,98,0.00,,,0.00,58,Wunderground v.1.15,2013-08-30 11:04:00,
2013-08-30 07:10:00,53.2,52.9,29.94,North,360,0.0,0.0,99,0.00,,,0.00,56,Wunderground v.1.15,2013-08-30 11:10:00,
2013-08-30 07:15:00,53.4,53.1,29.94,North,360,0.0,0.0,99,0.00,,,0.00,60,Wunderground v.1.15,2013-08-30 11:15:00,
2013-08-30 07:21:00,53.6,53.3,29.94,North,360,0.0,0.0,99,0.00,,,0.00,60,Wunderground v.1.15,2013-08-30 11:21:00,
2013-08-30 07:26:00,53.8,53.5,29.94,North,360,0.0,0.0,99,0.00,,,0.00,63,Wunderground v.1.15,2013-08-30 11:26:00,
2013-08-30 07:31:00,54.1,53.8,29.94,North,360,0.0,0.0,99,0.00,,,0.00,84,Wunderground v.1.15,2013-08-30 11:31:00,
2013-08-30 07:37:00,54.4,54.1,29.94,North,360,0.0,0.0,99,0.00,,,0.00,79,Wunderground v.1.15,2013-08-30 11:37:00,
2013-08-30 07:43:00,54.6,54.3,29.94,North,360,0.0,0.0,99,0.00,,,0.00,90,Wunderground v.1.15,2013-08-30 11:43:00,
2013-08-30 07:48:00,54.8,54.5,29.94,North,360,0.0,0.0,99,0.00,,,0.00,97,Wunderground v.1.15,2013-08-30 11:48:00,
2013-08-30 07:54:00,55.0,54.7,29.94,North,360,0.0,0.0,99,0.00,,,0.00,116,Wunderground v.1.15,2013-08-30 11:54:00,
2013-08-30 07:59:00,55.3,55.0,29.94,North,360,0.0,0.0,99,0.00,,,0.00,155,Wunderground v.1.15,2013-08-30 11:59:00,
2013-08-30 08:04:00,55.6,55.3,29.94,North,360,0.0,0.0,99,0.00,,,0.00,149,Wunderground v.1.15,2013-08-30 12:04:00,
2013-08-30 08:09:00,56.0,55.7,29.94,North,360,0.0,0.0,99,0.00,,,0.00,148,Wunderground v.1.15,2013-08-30 12:09:00,
2013-08-30 08:15:00,56.4,56.1,29.94,North,360,0.0,0.0,99,0.00,,,0.00,190,Wunderground v.1.15,2013-08-30 12:15:00,
2013-08-30 08:21:00,56.7,56.4,29.94,West,273,0.0,2.0,99,0.00,,,0.00,195,Wunderground v.1.15,2013-08-30 12:21:00,
2013-08-30 08:26:00,56.8,56.5,29.93,NW,321,0.0,2.0,99,0.00,,,0.00,236,Wunderground v.1.15,2013-08-30 12:26:00,
2013-08-30 08:32:00,57.0,56.7,29.93,NNW,348,0.0,2.0,99,0.00,,,0.00,330,Wunderground v.1.15,2013-08-30 12:32:00,
2013-08-30 08:37:00,57.2,56.9,29.93,WNW,285,1.0,2.0,99,0.00,,,0.00,341,Wunderground v.1.15,2013-08-30 12:37:00,
2013-08-30 08:43:00,57.6,57.0,29.93,WNW,282,1.0,3.0,98,0.00,,,0.00,360,Wunderground v.1.15,2013-08-30 12:43:00,
2013-08-30 08:48:00,58.1,57.5,29.93,WNW,284,1.0,3.0,98,0.00,,,0.00,383,Wunderground v.1.15,2013-08-30 12:48:00,
2013-08-30 08:54:00,59.2,58.3,29.93,NW,308,0.0,1.0,97,0.00,,,0.00,450,Wunderground v.1.15,2013-08-30 12:54:00,
2013-08-30 08:59:00,60.0,58.6,29.93,North,350,0.0,1.0,95,0.00,,,0.00,487,Wunderground v.1.15,2013-08-30 12:59:00,
2013-08-30 09:04:00,60.9,58.9,29.93,North,350,0.0,0.0,93,0.00,,,0.00,436,Wunderground v.1.15,2013-08-30 13:04:00,
2013-08-30 09:09:00,61.9,58.6,29.93,NNW,333,0.0,1.0,89,0.00,,,0.00,445,Wunderground v.1.15,2013-08-30 13:09:00,
2013-08-30 09:15:00,62.7,58.1,29.92,WNW,291,0.0,1.0,85,0.00,,,0.00,461,Wunderground v.1.15,2013-08-30 13:15:00,
2013-08-30 09:20:00,63.7,58.4,29.92,SSW,195,0.0,0.0,83,0.00,,,0.00,476,Wunderground v.1.15,2013-08-30 13:20:00,
2013-08-30 09:25:00,64.8,58.5,29.92,SSW,194,0.0,1.0,80,0.00,,,0.00,466,Wunderground v.1.15,2013-08-30 13:25:00,
2013-08-30 09:30:00,65.4,58.7,29.91,SSW,202,1.0,1.0,79,0.00,,,0.00,482,Wunderground v.1.15,2013-08-30 13:30:00,
2013-08-30 09:35:00,65.9,58.8,29.91,SSE,164,1.0,4.0,78,0.00,,,0.00,513,Wunderground v.1.15,2013-08-30 13:35:00,
2013-08-30 09:40:00,66.7,60.0,29.91,SE,134,1.0,1.0,79,0.00,,,0.00,526,Wunderground v.1.15,2013-08-30 13:40:00,
2013-08-30 09:46:00,67.2,59.7,29.91,West,266,1.0,1.0,77,0.00,,,0.00,540,Wunderground v.1.15,2013-08-30 13:46:00,
2013-08-30 09:51:00,67.7,59.9,29.91,SW,222,1.0,3.0,76,0.00,,,0.00,540,Wunderground v.1.15,2013-08-30 13:51:00,
2013-08-30 09:56:00,67.9,59.7,29.91,SW,227,1.0,3.0,75,0.00,,,0.00,566,Wunderground v.1.15,2013-08-30 13:56:00,
2013-08-30 10:01:00,68.1,60.2,29.90,WSW,240,1.0,1.0,76,0.00,,,0.00,575,Wunderground v.1.15,2013-08-30 14:01:00,
2013-08-30 10:06:00,68.4,59.8,29.90,West,262,1.0,1.0,74,0.00,,,0.00,587,Wunderground v.1.15,2013-08-30 14:06:00,
2013-08-30 10:11:00,68.9,60.6,29.89,SSW,199,0.0,1.0,75,0.00,,,0.00,599,Wunderground v.1.15,2013-08-30 14:11:00,
2013-08-30 10:17:00,69.4,60.4,29.89,SSW,198,0.0,4.0,73,0.00,,,0.00,619,Wunderground v.1.15,2013-08-30 14:17:00,
2013-08-30 10:22:00,69.6,60.6,29.89,SSW,211,1.0,3.0,73,0.00,,,0.00,617,Wunderground v.1.15,2013-08-30 14:22:00,
2013-08-30 10:27:00,69.7,60.7,29.89,SW,217,1.0,3.0,73,0.00,,,0.00,631,Wunderground v.1.15,2013-08-30 14:27:00,
2013-08-30 10:32:00,69.8,60.8,29.89,SW,217,1.0,2.0,73,0.00,,,0.00,636,Wunderground v.1.15,2013-08-30 14:32:00,
2013-08-30 10:37:00,70.1,60.7,29.89,South,181,1.0,3.0,72,0.00,,,0.00,645,Wunderground v.1.15,2013-08-30 14:37:00,
2013-08-30 10:43:00,70.0,60.9,29.89,West,272,3.0,3.0,73,0.00,,,0.00,654,Wunderground v.1.15,2013-08-30 14:43:00,
2013-08-30 10:49:00,70.0,61.3,29.89,South,191,2.0,3.0,74,0.00,,,0.00,664,Wunderground v.1.15,2013-08-30 14:49:00,
2013-08-30 10:54:00,70.5,61.4,29.89,SSE,154,2.0,3.0,73,0.00,,,0.00,701,Wunderground v.1.15,2013-08-30 14:54:00,
2013-08-30 11:00:00,70.9,61.4,29.89,SW,216,2.0,2.0,72,0.00,,,0.00,708,Wunderground v.1.15,2013-08-30 15:00:00,
2013-08-30 11:05:00,71.1,61.6,29.89,SW,218,2.0,5.0,72,0.00,,,0.00,251,Wunderground v.1.15,2013-08-30 15:05:00,
2013-08-30 11:10:00,71.3,61.8,29.88,South,183,1.0,1.0,72,0.00,,,0.00,729,Wunderground v.1.15,2013-08-30 15:10:00,
2013-08-30 11:15:00,71.6,61.7,29.88,SW,232,1.0,3.0,71,0.00,,,0.00,747,Wunderground v.1.15,2013-08-30 15:15:00,
2013-08-30 11:20:00,72.0,62.1,29.88,SE,128,2.0,2.0,71,0.00,,,0.00,853,Wunderground v.1.15,2013-08-30 15:20:00,
2013-08-30 11:26:00,72.7,62.3,29.88,WNW,289,1.0,4.0,70,0.00,,,0.00,229,Wunderground v.1.15,2013-08-30 15:26:00,
2013-08-30 11:32:00,72.3,62.0,29.88,SSW,196,1.0,3.0,70,0.00,,,0.00,308,Wunderground v.1.15,2013-08-30 15:32:00,
2013-08-30 11:38:00,72.2,62.7,29.87,SW,225,2.0,4.0,72,0.00,,,0.00,893,Wunderground v.1.15,2013-08-30 15:38:00,
2013-08-30 11:43:00,71.9,61.6,29.87,SSW,192,3.0,6.0,70,0.00,,,0.00,253,Wunderground v.1.15,2013-08-30 15:43:00,
2013-08-30 11:48:00,71.1,61.6,29.87,SE,131,4.0,7.0,72,0.00,,,0.00,900,Wunderground v.1.15,2013-08-30 15:48:00,
2013-08-30 11:53:00,70.9,62.2,29.87,SSE,153,4.0,5.0,74,0.00,,,0.00,392,Wunderground v.1.15,2013-08-30 15:53:00,
2013-08-30 11:58:00,71.1,61.6,29.87,SSE,159,4.0,8.0,72,0.00,,,0.00,350,Wunderground v.1.15,2013-08-30 15:58:00,
2013-08-30 12:04:00,71.1,62.0,29.86,South,185,3.0,4.0,73,0.00,,,0.00,904,Wunderground v.1.15,2013-08-30 16:04:00,
2013-08-30 12:09:00,71.3,62.2,29.86,SSW,200,3.0,4.0,73,0.00,,,0.00,468,Wunderground v.1.15,2013-08-30 16:09:00,
2013-08-30 12:14:00,71.2,62.1,29.86,SE,131,3.0,3.0,73,0.00,,,0.00,352,Wunderground v.1.15,2013-08-30 16:14:00,
2013-08-30 12:19:00,71.3,62.6,29.86,SSW,193,3.0,4.0,74,0.00,,,0.00,306,Wunderground v.1.15,2013-08-30 16:19:00,
2013-08-30 12:24:00,71.3,62.2,29.85,South,181,3.0,6.0,73,0.00,,,0.00,520,Wunderground v.1.15,2013-08-30 16:24:00,
2013-08-30 12:30:00,71.1,62.0,29.85,SSW,195,3.0,5.0,73,0.00,,,0.00,315,Wunderground v.1.15,2013-08-30 16:30:00,
2013-08-30 12:36:00,70.7,62.4,29.85,SSW,203,4.0,8.0,75,0.00,,,0.00,264,Wunderground v.1.15,2013-08-30 16:36:00,
2013-08-30 12:41:00,70.7,62.4,29.85,South,187,3.0,4.0,75,0.00,,,0.00,784,Wunderground v.1.15,2013-08-30 16:41:00,
2013-08-30 12:47:00,71.3,63.0,29.85,SSW,195,3.0,5.0,75,0.00,,,0.00,309,Wunderground v.1.15,2013-08-30 16:47:00,
2013-08-30 12:52:00,71.5,62.8,29.85,South,185,3.0,8.0,74,0.00,,,0.00,733,Wunderground v.1.15,2013-08-30 16:52:00,
2013-08-30 12:58:00,71.3,62.6,29.84,South,191,4.0,8.0,74,0.00,,,0.00,468,Wunderground v.1.15,2013-08-30 16:58:00,
2013-08-30 13:03:00,71.4,63.1,29.84,SSE,153,4.0,4.0,75,0.00,,,0.00,963,Wunderground v.1.15,2013-08-30 17:03:00,
2013-08-30 13:09:00,71.2,62.9,29.84,South,175,4.0,6.0,75,0.00,,,0.00,471,Wunderground v.1.15,2013-08-30 17:09:00,
2013-08-30 13:15:00,71.0,62.7,29.84,SE,145,4.0,7.0,75,0.00,,,0.00,352,Wunderground v.1.15,2013-08-30 17:15:00,
2013-08-30 13:20:00,71.2,63.6,29.83,South,169,4.0,4.0,77,0.00,,,0.00,584,Wunderground v.1.15,2013-08-30 17:20:00,
2013-08-30 13:25:00,71.4,63.4,29.83,South,180,4.0,7.0,76,0.00,,,0.00,900,Wunderground v.1.15,2013-08-30 17:25:00,
2013-08-30 13:31:00,71.3,63.3,29.83,WSW,240,5.0,5.0,76,0.00,,,0.00,504,Wunderground v.1.15,2013-08-30 17:31:00,
2013-08-30 13:37:00,71.7,63.7,29.83,South,170,4.0,6.0,76,0.00,,,0.00,737,Wunderground v.1.15,2013-08-30 17:37:00,
2013-08-30 13:43:00,72.0,64.4,29.82,SSW,207,4.0,6.0,77,0.00,,,0.00,731,Wunderground v.1.15,2013-08-30 17:43:00,
2013-08-30 13:49:00,72.6,64.6,29.82,SSW,205,3.0,6.0,76,0.00,,,0.00,724,Wunderground v.1.15,2013-08-30 17:49:00,
2013-08-30 13:54:00,72.6,63.8,29.82,ESE,115,4.0,6.0,74,0.00,,,0.00,726,Wunderground v.1.15,2013-08-30 17:54:00,
2013-08-30 14:00:00,72.7,64.3,29.82,SSE,165,4.0,4.0,75,0.00,,,0.00,742,Wunderground v.1.15,2013-08-30 18:00:00,
2013-08-30 14:06:00,72.9,64.5,29.82,SSE,157,4.0,6.0,75,0.00,,,0.00,297,Wunderground v.1.15,2013-08-30 18:06:00,
2013-08-30 14:12:00,72.6,64.2,29.81,SW,221,4.0,5.0,75,0.00,,,0.00,257,Wunderground v.1.15,2013-08-30 18:12:00,
2013-08-30 14:18:00,72.8,64.4,29.81,SE,142,4.0,5.0,75,0.00,,,0.00,336,Wunderground v.1.15,2013-08-30 18:18:00,
2013-08-30 14:24:00,73.3,65.3,29.81,SSE,155,3.0,3.0,76,0.00,,,0.00,756,Wunderground v.1.15,2013-08-30 18:24:00,
2013-08-30 14:29:00,73.9,65.5,29.81,SSE,163,3.0,4.0,75,0.00,,,0.00,691,Wunderground v.1.15,2013-08-30 18:29:00,
2013-08-30 14:35:00,74.2,65.4,29.80,WSW,256,3.0,5.0,74,0.00,,,0.00,650,Wunderground v.1.15,2013-08-30 18:35:00,
2013-08-30 14:41:00,74.4,65.6,29.80,South,179,4.0,5.0,74,0.00,,,0.00,766,Wunderground v.1.15,2013-08-30 18:41:00,
2013-08-30 14:46:00,74.5,65.3,29.80,SSE,168,4.0,5.0,73,0.00,,,0.00,677,Wunderground v.1.15,2013-08-30 18:46:00,
2013-08-30 14:52:00,74.5,65.3,29.80,SSW,195,4.0,4.0,73,0.00,,,0.00,666,Wunderground v.1.15,2013-08-30 18:52:00,
2013-08-30 14:58:00,74.6,65.8,29.80,South,180,3.0,5.0,74,0.00,,,0.00,759,Wunderground v.1.15,2013-08-30 18:58:00,
2013-08-30 15:04:00,75.0,66.1,29.80,SSW,207,3.0,7.0,74,0.00,,,0.00,295,Wunderground v.1.15,2013-08-30 19:04:00,
2013-08-30 15:10:00,74.5,65.7,29.79,SSE,149,4.0,4.0,74,0.00,,,0.00,526,Wunderground v.1.15,2013-08-30 19:10:00,
2013-08-30 15:16:00,74.4,66.3,29.79,South,191,4.0,8.0,76,0.00,,,0.00,285,Wunderground v.1.15,2013-08-30 19:16:00,
2013-08-30 15:22:00,74.4,66.0,29.79,South,171,4.0,4.0,75,0.00,,,0.00,580,Wunderground v.1.15,2013-08-30 19:22:00,
2013-08-30 15:28:00,74.4,66.3,29.79,SE,142,4.0,7.0,76,0.00,,,0.00,557,Wunderground v.1.15,2013-08-30 19:28:00,
2013-08-30 15:34:00,75.0,66.9,29.79,SSW,205,3.0,3.0,76,0.00,,,0.00,548,Wunderground v.1.15,2013-08-30 19:34:00,
2013-08-30 15:40:00,75.3,66.4,29.79,SSW,205,3.0,3.0,74,0.00,,,0.00,540,Wunderground v.1.15,2013-08-30 19:40:00,
2013-08-30 15:45:00,75.2,66.3,29.78,South,178,3.0,5.0,74,0.00,,,0.00,533,Wunderground v.1.15,2013-08-30 19:45:00,
2013-08-30 15:50:00,75.4,66.9,29.79,SSE,152,2.0,2.0,75,0.00,,,0.00,513,Wunderground v.1.15,2013-08-30 19:50:00,
2013-08-30 15:55:00,75.3,66.4,29.79,ESE,115,3.0,8.0,74,0.00,,,0.00,499,Wunderground v.1.15,2013-08-30 19:55:00,
2013-08-30 16:01:00,74.6,66.1,29.79,SSE,168,5.0,7.0,75,0.00,,,0.00,485,Wunderground v.1.15,2013-08-30 20:01:00,
2013-08-30 16:07:00,74.0,66.0,29.78,SSE,153,5.0,8.0,76,0.00,,,0.00,475,Wunderground v.1.15,2013-08-30 20:07:00,
2013-08-30 16:13:00,73.8,66.1,29.79,SW,220,4.0,4.0,77,0.00,,,0.00,420,Wunderground v.1.15,2013-08-30 20:13:00,
2013-08-30 16:18:00,73.7,66.4,29.78,SSE,165,4.0,8.0,78,0.00,,,0.00,450,Wunderground v.1.15,2013-08-30 20:18:00,
2013-08-30 16:23:00,73.8,66.5,29.78,SSW,196,4.0,4.0,78,0.00,,,0.00,432,Wunderground v.1.15,2013-08-30 20:23:00,
2013-08-30 16:28:00,73.8,66.5,29.78,SSW,194,4.0,5.0,78,0.00,,,0.00,417,Wunderground v.1.15,2013-08-30 20:28:00,
2013-08-30 16:34:00,74.0,66.7,29.78,South,178,4.0,5.0,78,0.00,,,0.00,406,Wunderground v.1.15,2013-08-30 20:34:00,
2013-08-30 16:39:00,74.1,66.4,29.78,South,181,3.0,7.0,77,0.00,,,0.00,135,Wunderground v.1.15,2013-08-30 20:39:00,
2013-08-30 16:44:00,74.1,66.4,29.78,SSW,200,3.0,7.0,77,0.00,,,0.00,373,Wunderground v.1.15,2013-08-30 20:44:00,
2013-08-30 16:50:00,74.3,66.6,29.78,SW,227,3.0,4.0,77,0.00,,,0.00,346,Wunderground v.1.15,2013-08-30 20:50:00,
2013-08-30 16:56:00,74.4,67.1,29.78,SSE,155,3.0,6.0,78,0.00,,,0.00,334,Wunderground v.1.15,2013-08-30 20:56:00,
2013-08-30 17:01:00,74.3,66.6,29.78,SSW,192,3.0,4.0,77,0.00,,,0.00,318,Wunderground v.1.15,2013-08-30 21:01:00,
2013-08-30 17:07:00,74.4,67.1,29.78,SSE,156,2.0,5.0,78,0.00,,,0.00,301,Wunderground v.1.15,2013-08-30 21:07:00,
2013-08-30 17:13:00,74.5,67.2,29.78,South,190,3.0,5.0,78,0.00,,,0.00,281,Wunderground v.1.15,2013-08-30 21:13:00,
2013-08-30 17:19:00,74.6,67.3,29.78,South,188,4.0,5.0,78,0.00,,,0.00,244,Wunderground v.1.15,2013-08-30 21:19:00,
2013-08-30 17:24:00,74.7,67.0,29.78,South,176,4.0,5.0,77,0.00,,,0.00,213,Wunderground v.1.15,2013-08-30 21:24:00,
2013-08-30 17:29:00,74.7,67.4,29.78,SSE,161,3.0,5.0,78,0.00,,,0.00,243,Wunderground v.1.15,2013-08-30 21:29:00,
2013-08-30 17:34:00,74.7,67.0,29.78,South,190,3.0,5.0,77,0.00,,,0.00,211,Wunderground v.1.15,2013-08-30 21:34:00,
2013-08-30 17:40:00,74.8,67.1,29.78,SSW,207,3.0,3.0,77,0.00,,,0.00,86,Wunderground v.1.15,2013-08-30 21:40:00,
2013-08-30 17:46:00,74.7,67.0,29.78,SW,217,3.0,5.0,77,0.00,,,0.00,86,Wunderground v.1.15,2013-08-30 21:46:00,
2013-08-30 17:52:00,74.6,66.9,29.78,WSW,238,3.0,3.0,77,0.00,,,0.00,83,Wunderground v.1.15,2013-08-30 21:52:00,
2013-08-30 17:58:00,74.4,66.7,29.78,South,186,3.0,4.0,77,0.00,,,0.00,63,Wunderground v.1.15,2013-08-30 21:58:00,
2013-08-30 18:04:00,74.2,66.5,29.78,SW,223,3.0,3.0,77,0.00,,,0.00,54,Wunderground v.1.15,2013-08-30 22:04:00,
2013-08-30 18:09:00,74.1,66.8,29.78,SSW,203,2.0,3.0,78,0.00,,,0.00,51,Wunderground v.1.15,2013-08-30 22:09:00,
2013-08-30 18:14:00,73.9,66.2,29.78,SSW,209,2.0,3.0,77,0.00,,,0.00,44,Wunderground v.1.15,2013-08-30 22:14:00,
2013-08-30 18:19:00,73.7,66.0,29.78,SSW,204,2.0,7.0,77,0.00,,,0.00,46,Wunderground v.1.15,2013-08-30 22:19:00,
2013-08-30 18:25:00,73.4,66.1,29.78,SSE,167,3.0,5.0,78,0.00,,,0.00,40,Wunderground v.1.15,2013-08-30 22:25:00,
2013-08-30 18:31:00,73.1,65.8,29.78,SSW,192,2.0,2.0,78,0.00,,,0.00,30,Wunderground v.1.15,2013-08-30 22:31:00,
2013-08-30 18:36:00,72.9,66.0,29.78,South,188,1.0,4.0,79,0.00,,,0.00,26,Wunderground v.1.15,2013-08-30 22:36:00,
2013-08-30 18:42:00,72.7,65.8,29.78,SSW,208,1.0,2.0,79,0.00,,,0.00,28,Wunderground v.1.15,2013-08-30 22:42:00,
2013-08-30 18:47:00,72.5,65.6,29.78,SSW,201,2.0,3.0,79,0.00,,,0.00,26,Wunderground v.1.15,2013-08-30 22:47:00,
2013-08-30 18:52:00,72.3,65.4,29.78,SW,230,1.0,1.0,79,0.00,,,0.00,21,Wunderground v.1.15,2013-08-30 22:52:00,
2013-08-30 18:58:00,72.0,65.5,29.78,SSW,208,1.0,3.0,80,0.00,,,0.00,14,Wunderground v.1.15,2013-08-30 22:58:00,
2013-08-30 19:04:00,71.7,65.2,29.78,South,184,2.0,5.0,80,0.00,,,0.00,7,Wunderground v.1.15,2013-08-30 23:04:00,
2013-08-30 19:10:00,71.5,65.0,29.78,SW,223,2.0,2.0,80,0.00,,,0.00,5,Wunderground v.1.15,2013-08-30 23:10:00,
2013-08-30 19:15:00,71.3,65.2,29.78,SW,221,1.0,2.0,81,0.00,,,0.00,0,Wunderground v.1.15,2013-08-30 23:15:00,
2013-08-30 19:21:00,71.0,64.9,29.78,SSW,207,0.0,1.0,81,0.00,,,0.00,0,Wunderground v.1.15,2013-08-30 23:21:00,
2013-08-30 19:27:00,70.5,64.4,29.79,SSW,201,1.0,3.0,81,0.00,,,0.00,0,Wunderground v.1.15,2013-08-30 23:27:00,
2013-08-30 19:32:00,70.3,64.2,29.79,SSW,210,1.0,1.0,81,0.00,,,0.00,0,Wunderground v.1.15,2013-08-30 23:32:00,
2013-08-30 19:37:00,70.0,64.2,29.79,South,182,1.0,1.0,82,0.00,,,0.00,0,Wunderground v.1.15,2013-08-30 23:37:00,
2013-08-30 19:43:00,69.8,64.1,29.79,South,187,1.0,1.0,82,0.00,,,0.00,0,Wunderground v.1.15,2013-08-30 23:43:00,
2013-08-30 19:48:00,69.6,64.2,29.79,SSW,198,1.0,3.0,83,0.00,,,0.00,0,Wunderground v.1.15,2013-08-30 23:48:00,
2013-08-30 19:53:00,69.4,64.0,29.79,SSW,207,1.0,4.0,83,0.00,,,0.00,0,Wunderground v.1.15,2013-08-30 23:53:00,
2013-08-30 19:59:00,69.1,64.1,29.79,SSW,193,1.0,4.0,84,0.00,,,0.00,0,Wunderground v.1.15,2013-08-30 23:59:00,
2013-08-30 20:04:00,68.8,63.8,29.79,SSE,150,1.0,3.0,84,0.00,,,0.00,0,Wunderground v.1.15,2013-08-31 00:04:00,
2013-08-30 20:10:00,68.3,63.6,29.79,SE,136,2.0,2.0,85,0.00,,,0.00,0,Wunderground v.1.15,2013-08-31 00:10:00,
2013-08-30 20:15:00,67.9,63.6,29.79,SSW,205,2.0,2.0,86,0.00,,,0.00,0,Wunderground v.1.15,2013-08-31 00:15:00,
2013-08-30 20:20:00,67.7,63.4,29.79,South,186,1.0,3.0,86,0.00,,,0.00,0,Wunderground v.1.15,2013-08-31 00:20:00,
2013-08-30 20:25:00,67.6,63.6,29.79,SSE,155,1.0,3.0,87,0.00,,,0.00,0,Wunderground v.1.15,2013-08-31 00:25:00,
2013-08-30 20:31:00,67.4,63.7,29.79,South,182,2.0,2.0,88,0.00,,,0.00,0,Wunderground v.1.15,2013-08-31 00:31:00,
2013-08-30 20:37:00,67.3,63.6,29.79,South,176,1.0,4.0,88,0.00,,,0.00,0,Wunderground v.1.15,2013-08-31 00:37:00,
2013-08-30 20:42:00,67.2,63.5,29.79,SSE,167,1.0,1.0,88,0.00,,,0.00,0,Wunderground v.1.15,2013-08-31 00:42:00,
2013-08-30 20:48:00,67.1,63.7,29.79,South,171,0.0,1.0,89,0.00,,,0.00,0,Wunderground v.1.15,2013-08-31 00:48:00,
2013-08-30 20:54:00,67.0,63.6,29.79,SW,220,0.0,1.0,89,0.00,,,0.00,0,Wunderground v.1.15,2013-08-31 00:54:00,
2013-08-30 20:59:00,67.0,63.6,29.79,South,170,0.0,1.0,89,0.00,,,0.00,0,Wunderground v.1.15,2013-08-31 00:59:00,
2013-08-30 21:04:00,66.8,63.8,29.78,South,175,0.0,2.0,90,0.00,,,0.00,0,Wunderground v.1.15,2013-08-31 01:04:00,
2013-08-30 21:10:00,66.7,63.7,29.78,SW,215,0.0,0.0,90,0.00,,,0.00,0,Wunderground v.1.15,2013-08-31 01:10:00,
2013-08-30 21:15:00,66.6,63.6,29.78,SW,215,0.0,0.0,90,0.00,,,0.00,0,Wunderground v.1.15,2013-08-31 01:15:00,
2013-08-30 21:20:00,66.6,63.6,29.78,SW,219,0.0,0.0,90,0.00,,,0.00,0,Wunderground v.1.15,2013-08-31 01:20:00,
2013-08-30 21:25:00,66.5,63.5,29.78,SW,217,0.0,0.0,90,0.00,,,0.00,0,Wunderground v.1.15,2013-08-31 01:25:00,
2013-08-30 21:30:00,66.4,63.7,29.78,SW,217,0.0,0.0,91,0.00,,,0.00,0,Wunderground v.1.15,2013-08-31 01:30:00,
2013-08-30 21:36:00,66.3,63.6,29.78,SSW,209,0.0,2.0,91,0.00,,,0.00,0,Wunderground v.1.15,2013-08-31 01:36:00,
2013-08-30 21:41:00,66.3,63.9,29.78,South,169,0.0,2.0,92,0.00,,,0.00,0,Wunderground v.1.15,2013-08-31 01:41:00,
2013-08-30 21:46:00,66.3,63.9,29.78,SSW,193,1.0,2.0,92,0.00,,,0.00,0,Wunderground v.1.15,2013-08-31 01:46:00,
2013-08-30 21:52:00,66.3,63.9,29.77,South,190,1.0,1.0,92,0.00,,,0.00,0,Wunderground v.1.15,2013-08-31 01:52:00,
2013-08-30 21:58:00,66.3,63.9,29.77,South,178,1.0,2.0,92,0.00,,,0.00,0,Wunderground v.1.15,2013-08-31 01:58:00,
2013-08-30 22:03:00,66.4,64.0,29.77,SSE,154,0.0,0.0,92,0.00,,,0.00,0,Wunderground v.1.15,2013-08-31 02:03:00,
2013-08-30 22:08:00,66.4,64.0,29.77,SSW,203,0.0,3.0,92,0.00,,,0.00,0,Wunderground v.1.15,2013-08-31 02:08:00,
2013-08-30 22:14:00,66.4,64.0,29.77,South,180,1.0,1.0,92,0.00,,,0.00,0,Wunderground v.1.15,2013-08-31 02:14:00,
2013-08-30 22:20:00,66.4,64.0,29.77,South,169,1.0,1.0,92,0.00,,,0.00,0,Wunderground v.1.15,2013-08-31 02:20:00,
2013-08-30 22:25:00,66.5,64.1,29.77,South,178,0.0,2.0,92,0.00,,,0.00,0,Wunderground v.1.15,2013-08-31 02:25:00,
2013-08-30 22:30:00,66.5,64.4,29.77,South,173,0.0,0.0,93,0.00,,,0.00,0,Wunderground v.1.15,2013-08-31 02:30:00,
2013-08-30 22:35:00,66.6,64.5,29.77,SSW,200,0.0,0.0,93,0.00,,,0.00,0,Wunderground v.1.15,2013-08-31 02:35:00,
2013-08-30 22:40:00,66.7,64.6,29.77,SSW,200,0.0,0.0,93,0.00,,,0.00,0,Wunderground v.1.15,2013-08-31 02:40:00,
2013-08-30 22:45:00,66.7,64.6,29.77,SSE,164,0.0,2.0,93,0.00,,,0.00,0,Wunderground v.1.15,2013-08-31 02:45:00,
2013-08-30 22:50:00,66.7,64.6,29.77,SSW,201,1.0,1.0,93,0.00,,,0.00,0,Wunderground v.1.15,2013-08-31 02:50:00,
2013-08-30 22:56:00,66.8,64.4,29.77,SSW,207,0.0,1.0,92,0.00,,,0.00,0,Wunderground v.1.15,2013-08-31 02:56:00,
2013-08-30 23:01:00,66.8,64.4,29.77,SSW,207,0.0,0.0,92,0.00,,,0.00,0,Wunderground v.1.15,2013-08-31 03:01:00,
2013-08-30 23:06:00,66.8,64.7,29.77,SE,141,0.0,1.0,93,0.00,,,0.00,0,Wunderground v.1.15,2013-08-31 03:06:00,
2013-08-30 23:12:00,66.7,64.3,29.77,SE,141,0.0,0.0,92,0.00,,,0.00,0,Wunderground v.1.15,2013-08-31 03:12:00,
2013-08-30 23:18:00,66.7,64.3,29.76,SE,141,0.0,0.0,92,0.00,,,0.00,0,Wunderground v.1.15,2013-08-31 03:18:00,
2013-08-30 23:24:00,66.7,64.3,29.76,SE,141,0.0,0.0,92,0.00,,,0.00,0,Wunderground v.1.15,2013-08-31 03:24:00,
2013-08-30 23:30:00,66.6,64.2,29.76,SE,141,0.0,0.0,92,0.00,,,0.00,0,Wunderground v.1.15,2013-08-31 03:30:00,
2013-08-30 23:35:00,66.5,64.4,29.76,SE,142,0.0,0.0,93,0.00,,,0.00,0,Wunderground v.1.15,2013-08-31 03:35:00,
2013-08-30 23:40:00,66.5,64.4,29.76,SE,142,0.0,0.0,93,0.00,,,0.00,0,Wunderground v.1.15,2013-08-31 03:40:00,
2013-08-30 23:45:00,66.5,64.1,29.76,SE,142,0.0,0.0,92,0.00,,,0.00,0,Wunderground v.1.15,2013-08-31 03:45:00,
2013-08-30 23:50:00,66.4,64.3,29.76,SE,142,0.0,0.0,93,0.00,,,0.00,0,Wunderground v.1.15,2013-08-31 03:50:00,
2013-08-30 23:56:00,66.4,64.3,29.76,SE,142,0.0,0.0,93,0.00,,,0.00,0,Wunderground v.1.15,2013-08-31 03:56:00,